Time,TemperatureF,DewpointF,PressureIn,WindDirection,WindDirectionDegrees,WindSpeedMPH,WindSpeedGustMPH,Humidity,HourlyPrecipIn,Conditions,Clouds,dailyrainin,SoftwareType,DateUTC
2013-07-31 00:00:00,67.0,67.0,30.15,SW,225,0.0,0.0,100,0.01,,,0.00,Weather View 32 v70,2013-07-31 04:00:00,
2013-07-31 00:05:00,66.0,66.0,30.15,SW,225,0.0,0.0,100,0.01,,,0.00,Weather View 32 v70,2013-07-31 04:05:00,
2013-07-31 00:10:00,66.0,66.0,30.15,SW,225,0.0,0.0,100,0.00,,,0.00,Weather View 32 v70,2013-07-31 04:10:00,
2013-07-31 00:15:00,67.0,67.0,30.15,SW,225,5.0,5.0,100,0.00,,,0.00,Weather View 32 v70,2013-07-31 04:15:00,
2013-07-31 00:25:00,66.0,66.0,30.15,SW,225,0.0,5.0,100,0.00,,,0.00,Weather View 32 v70,2013-07-31 04:25:00,
2013-07-31 00:30:00,66.0,66.0,30.15,SW,225,0.0,5.0,100,0.00,,,0.00,Weather View 32 v70,2013-07-31 04:30:00,
2013-07-31 00:40:00,67.0,67.0,30.16,West,270,0.0,5.0,100,0.00,,,0.00,Weather View 32 v70,2013-07-31 04:40:00,
2013-07-31 00:50:00,66.0,66.0,30.16,WSW,247,0.0,5.0,100,0.00,,,0.00,Weather View 32 v70,2013-07-31 04:50:00,
2013-07-31 01:00:00,66.0,66.0,30.16,WSW,247,0.0,5.0,100,0.00,,,0.00,Weather View 32 v70,2013-07-31 05:00:00,
2013-07-31 01:10:00,66.0,66.0,30.16,SW,225,0.0,6.0,100,0.00,,,0.00,Weather View 32 v70,2013-07-31 05:10:00,
2013-07-31 01:20:00,66.0,66.0,30.16,SW,225,0.0,7.0,100,0.01,,,0.01,Weather View 32 v70,2013-07-31 05:20:00,
2013-07-31 01:30:00,65.0,65.0,30.16,SW,225,0.0,7.0,100,0.01,,,0.01,Weather View 32 v70,2013-07-31 05:30:00,
2013-07-31 01:40:00,65.0,65.0,30.16,WSW,247,5.0,7.0,100,0.02,,,0.02,Weather View 32 v70,2013-07-31 05:40:00,
2013-07-31 01:50:00,64.0,64.0,30.16,SW,225,4.0,7.0,100,0.04,,,0.04,Weather View 32 v70,2013-07-31 05:50:00,
2013-07-31 02:00:00,64.0,64.0,30.15,SW,225,4.0,7.0,100,0.05,,,0.05,Weather View 32 v70,2013-07-31 06:00:00,
2013-07-31 02:10:00,64.0,64.0,30.15,SW,225,0.0,7.0,100,0.06,,,0.06,Weather View 32 v70,2013-07-31 06:10:00,
2013-07-31 02:20:00,64.0,64.0,30.15,SW,225,0.0,7.0,100,0.06,,,0.07,Weather View 32 v70,2013-07-31 06:20:00,
2013-07-31 02:30:00,63.0,63.0,30.15,SW,225,0.0,7.0,100,0.07,,,0.08,Weather View 32 v70,2013-07-31 06:30:00,
2013-07-31 02:35:00,63.0,63.0,30.15,SW,225,0.0,7.0,100,0.07,,,0.09,Weather View 32 v70,2013-07-31 06:35:00,
2013-07-31 02:45:00,63.0,63.0,30.15,SW,225,0.0,7.0,100,0.07,,,0.10,Weather View 32 v70,2013-07-31 06:45:00,
2013-07-31 02:52:00,63.0,63.0,30.15,SW,225,0.0,7.0,100,0.07,,,0.11,Weather View 32 v70,2013-07-31 06:52:00,
2013-07-31 03:00:00,63.0,63.0,30.15,SW,225,0.0,7.0,100,0.07,,,0.12,Weather View 32 v70,2013-07-31 07:00:00,
2013-07-31 03:05:00,63.0,63.0,30.15,SW,225,3.0,4.0,100,0.07,,,0.13,Weather View 32 v70,2013-07-31 07:05:00,
2013-07-31 03:15:00,63.0,63.0,30.14,SW,225,3.0,5.0,100,0.08,,,0.15,Weather View 32 v70,2013-07-31 07:15:00,
2013-07-31 03:25:00,63.0,63.0,30.14,SW,225,6.0,6.0,100,0.08,,,0.16,Weather View 32 v70,2013-07-31 07:25:00,
2013-07-31 03:30:00,63.0,63.0,30.14,SW,225,3.0,6.0,100,0.08,,,0.16,Weather View 32 v70,2013-07-31 07:30:00,
2013-07-31 03:35:00,63.0,63.0,30.14,SW,225,2.0,6.0,100,0.07,,,0.16,Weather View 32 v70,2013-07-31 07:35:00,
2013-07-31 03:45:00,63.0,63.0,30.14,SW,225,0.0,6.0,100,0.07,,,0.17,Weather View 32 v70,2013-07-31 07:45:00,
2013-07-31 03:53:00,62.0,62.0,30.14,SW,225,0.0,6.0,100,0.06,,,0.17,Weather View 32 v70,2013-07-31 07:53:00,
2013-07-31 04:00:00,62.0,62.0,30.14,SW,225,0.0,6.0,100,0.05,,,0.17,Weather View 32 v70,2013-07-31 08:00:00,
2013-07-31 04:10:00,62.0,62.0,30.14,SW,225,0.0,6.0,100,0.04,,,0.18,Weather View 32 v70,2013-07-31 08:10:00,
2013-07-31 04:20:00,62.0,62.0,30.14,SW,225,0.0,6.0,100,0.04,,,0.19,Weather View 32 v70,2013-07-31 08:20:00,
2013-07-31 04:30:00,62.0,62.0,30.14,SW,225,0.0,5.0,100,0.03,,,0.19,Weather View 32 v70,2013-07-31 08:30:00,
2013-07-31 04:40:00,62.0,62.0,30.13,SW,225,0.0,5.0,100,0.02,,,0.19,Weather View 32 v70,2013-07-31 08:40:00,
2013-07-31 04:50:00,62.0,62.0,30.12,SW,225,0.0,4.0,100,0.02,,,0.19,Weather View 32 v70,2013-07-31 08:50:00,
2013-07-31 05:00:00,63.0,63.0,30.12,SW,225,0.0,4.0,100,0.02,,,0.19,Weather View 32 v70,2013-07-31 09:00:00,
2013-07-31 05:10:00,63.0,63.0,30.12,SW,225,0.0,4.0,100,0.01,,,0.19,Weather View 32 v70,2013-07-31 09:10:00,
2013-07-31 05:20:00,63.0,63.0,30.12,SW,225,0.0,4.0,100,0.00,,,0.19,Weather View 32 v70,2013-07-31 09:20:00,
2013-07-31 05:25:00,63.0,63.0,30.12,East,90,0.0,4.0,100,0.01,,,0.20,Weather View 32 v70,2013-07-31 09:25:00,
2013-07-31 05:35:00,63.0,63.0,30.11,SW,225,1.0,4.0,100,0.01,,,0.20,Weather View 32 v70,2013-07-31 09:35:00,
2013-07-31 05:45:00,63.0,63.0,30.11,SW,225,0.0,6.0,100,0.01,,,0.20,Weather View 32 v70,2013-07-31 09:45:00,
2013-07-31 05:54:00,63.0,63.0,30.11,SW,225,0.0,6.0,100,0.01,,,0.20,Weather View 32 v70,2013-07-31 09:54:00,
2013-07-31 06:00:00,63.0,63.0,30.11,East,90,0.0,6.0,100,0.01,,,0.20,Weather View 32 v70,2013-07-31 10:00:00,
2013-07-31 06:10:00,63.0,63.0,30.11,East,90,0.0,6.0,100,0.01,,,0.20,Weather View 32 v70,2013-07-31 10:10:00,
2013-07-31 06:20:00,63.0,63.0,30.11,East,90,0.0,6.0,100,0.01,,,0.20,Weather View 32 v70,2013-07-31 10:20:00,
2013-07-31 06:30:00,63.0,63.0,30.11,East,90,0.0,6.0,100,0.00,,,0.20,Weather View 32 v70,2013-07-31 10:30:00,
2013-07-31 06:40:00,63.0,63.0,30.11,East,90,0.0,6.0,100,0.00,,,0.20,Weather View 32 v70,2013-07-31 10:40:00,
2013-07-31 06:45:00,63.0,63.0,30.11,SW,225,0.0,5.0,100,0.00,,,0.20,Weather View 32 v70,2013-07-31 10:45:00,
2013-07-31 06:54:00,63.0,63.0,30.11,East,90,1.0,3.0,100,0.00,,,0.20,Weather View 32 v70,2013-07-31 10:54:00,
2013-07-31 07:00:00,63.0,63.0,30.10,East,90,0.0,3.0,100,0.00,,,0.20,Weather View 32 v70,2013-07-31 11:00:00,
2013-07-31 07:10:00,63.0,63.0,30.10,East,90,0.0,3.0,100,0.00,,,0.20,Weather View 32 v70,2013-07-31 11:10:00,
2013-07-31 07:20:00,63.0,63.0,30.11,East,90,0.0,3.0,100,0.00,,,0.20,Weather View 32 v70,2013-07-31 11:20:00,
2013-07-31 07:30:00,63.0,63.0,30.11,East,90,3.0,4.0,100,0.00,,,0.20,Weather View 32 v70,2013-07-31 11:30:00,
2013-07-31 07:35:00,63.0,63.0,30.11,East,90,0.0,4.0,100,0.00,,,0.20,Weather View 32 v70,2013-07-31 11:35:00,
2013-07-31 07:45:00,63.0,63.0,30.10,East,90,0.0,4.0,100,0.00,,,0.20,Weather View 32 v70,2013-07-31 11:45:00,
2013-07-31 07:50:00,63.0,63.0,30.09,East,90,3.0,5.0,100,0.00,,,0.20,Weather View 32 v70,2013-07-31 11:50:00,
2013-07-31 07:55:00,63.0,63.0,30.09,SW,225,0.0,5.0,100,0.00,,,0.20,Weather View 32 v70,2013-07-31 11:55:00,
2013-07-31 08:05:00,64.0,64.0,30.09,East,90,0.0,5.0,100,0.00,,,0.20,Weather View 32 v70,2013-07-31 12:05:00,
2013-07-31 08:10:00,64.0,64.0,30.09,SW,225,4.0,5.0,100,0.00,,,0.20,Weather View 32 v70,2013-07-31 12:10:00,
2013-07-31 08:15:00,64.0,64.0,30.09,East,90,4.0,5.0,100,0.00,,,0.20,Weather View 32 v70,2013-07-31 12:15:00,
2013-07-31 08:20:00,64.0,64.0,30.09,East,90,0.0,5.0,100,0.00,,,0.20,Weather View 32 v70,2013-07-31 12:20:00,
2013-07-31 08:30:00,65.0,65.0,30.08,East,90,1.0,5.0,100,0.00,,,0.20,Weather View 32 v70,2013-07-31 12:30:00,
2013-07-31 08:40:00,65.0,65.0,30.08,East,90,0.0,5.0,100,0.00,,,0.20,Weather View 32 v70,2013-07-31 12:40:00,
2013-07-31 08:45:00,65.0,65.0,30.08,East,90,0.0,5.0,100,0.00,,,0.20,Weather View 32 v70,2013-07-31 12:45:00,
2013-07-31 08:50:00,65.0,65.0,30.08,SW,225,4.0,5.0,100,0.00,,,0.20,Weather View 32 v70,2013-07-31 12:50:00,
2013-07-31 08:55:00,65.0,65.0,30.08,WSW,247,5.0,5.0,100,0.00,,,0.20,Weather View 32 v70,2013-07-31 12:55:00,
2013-07-31 09:05:00,66.0,66.0,30.08,SW,225,4.0,7.0,100,0.00,,,0.20,Weather View 32 v70,2013-07-31 13:05:00,
2013-07-31 09:15:00,66.0,66.0,30.08,SW,225,5.0,8.0,100,0.00,,,0.20,Weather View 32 v70,2013-07-31 13:15:00,
2013-07-31 09:25:00,67.0,67.0,30.08,SW,225,5.0,8.0,100,0.00,,,0.20,Weather View 32 v70,2013-07-31 13:25:00,
2013-07-31 09:35:00,67.0,67.0,30.08,SW,225,4.0,8.0,100,0.00,,,0.20,Weather View 32 v70,2013-07-31 13:35:00,
2013-07-31 09:45:00,68.0,68.0,30.08,SW,225,7.0,8.0,100,0.00,,,0.20,Weather View 32 v70,2013-07-31 13:45:00,
2013-07-31 09:50:00,67.0,67.0,30.08,SW,225,4.0,8.0,100,0.00,,,0.20,Weather View 32 v70,2013-07-31 13:50:00,
2013-07-31 09:56:00,68.0,68.0,30.08,SW,225,6.0,8.0,100,0.00,,,0.20,Weather View 32 v70,2013-07-31 13:56:00,
2013-07-31 10:05:00,68.0,68.0,30.08,SW,225,4.0,9.0,100,0.00,,,0.20,Weather View 32 v70,2013-07-31 14:05:00,
2013-07-31 10:10:00,68.0,68.0,30.08,SW,225,4.0,9.0,100,0.00,,,0.20,Weather View 32 v70,2013-07-31 14:10:00,
2013-07-31 10:20:00,68.0,68.0,30.08,SW,225,0.0,9.0,100,0.00,,,0.20,Weather View 32 v70,2013-07-31 14:20:00,
2013-07-31 10:30:00,68.0,68.0,30.07,SW,225,4.0,9.0,100,0.00,,,0.20,Weather View 32 v70,2013-07-31 14:30:00,
2013-07-31 10:35:00,68.0,68.0,30.07,SW,225,3.0,9.0,100,0.00,,,0.20,Weather View 32 v70,2013-07-31 14:35:00,
2013-07-31 10:40:00,69.0,69.0,30.07,SW,225,7.0,9.0,100,0.00,,,0.20,Weather View 32 v70,2013-07-31 14:40:00,
2013-07-31 10:50:00,69.0,69.0,30.07,SW,225,4.0,9.0,100,0.00,,,0.20,Weather View 32 v70,2013-07-31 14:50:00,
2013-07-31 10:57:00,69.0,69.0,30.07,SW,225,0.0,10.0,100,0.00,,,0.20,Weather View 32 v70,2013-07-31 14:57:00,
2013-07-31 11:05:00,70.0,70.0,30.08,SW,225,0.0,10.0,100,0.00,,,0.20,Weather View 32 v70,2013-07-31 15:05:00,
2013-07-31 11:10:00,70.0,70.0,30.07,SW,225,3.0,10.0,100,0.00,,,0.20,Weather View 32 v70,2013-07-31 15:10:00,
2013-07-31 11:15:00,70.0,70.0,30.07,SW,225,3.0,10.0,100,0.00,,,0.20,Weather View 32 v70,2013-07-31 15:15:00,
2013-07-31 11:20:00,70.0,70.0,30.07,SW,225,7.0,10.0,100,0.00,,,0.20,Weather View 32 v70,2013-07-31 15:20:00,
2013-07-31 11:25:00,70.0,70.0,30.07,SW,225,0.0,10.0,100,0.00,,,0.20,Weather View 32 v70,2013-07-31 15:25:00,
2013-07-31 11:30:00,70.0,70.0,30.07,SW,225,0.0,10.0,100,0.00,,,0.20,Weather View 32 v70,2013-07-31 15:30:00,
2013-07-31 11:40:00,69.0,69.0,30.06,SW,225,2.0,10.0,100,0.00,,,0.20,Weather View 32 v70,2013-07-31 15:40:00,
2013-07-31 11:45:00,69.0,69.0,30.06,SW,225,7.0,11.0,100,0.00,,,0.20,Weather View 32 v70,2013-07-31 15:45:00,
2013-07-31 11:55:00,69.0,69.0,30.07,SW,225,5.0,11.0,100,0.00,,,0.20,Weather View 32 v70,2013-07-31 15:55:00,
2013-07-31 12:00:00,69.0,69.0,30.06,SW,225,5.0,11.0,100,0.00,,,0.20,Weather View 32 v70,2013-07-31 16:00:00,
2013-07-31 12:10:00,69.0,69.0,30.06,SW,225,8.0,11.0,100,0.00,,,0.20,Weather View 32 v70,2013-07-31 16:10:00,
2013-07-31 12:20:00,70.0,70.0,30.06,SW,225,7.0,11.0,100,0.00,,,0.20,Weather View 32 v70,2013-07-31 16:20:00,
2013-07-31 12:30:00,70.0,70.0,30.05,SW,225,3.0,11.0,100,0.00,,,0.20,Weather View 32 v70,2013-07-31 16:30:00,
2013-07-31 12:40:00,69.0,69.0,30.06,SW,225,0.0,11.0,100,0.00,,,0.20,Weather View 32 v70,2013-07-31 16:40:00,
2013-07-31 12:50:00,69.0,69.0,30.05,SW,225,3.0,10.0,100,0.00,,,0.20,Weather View 32 v70,2013-07-31 16:50:00,
2013-07-31 12:58:00,69.0,69.0,30.05,WSW,247,4.0,10.0,100,0.00,,,0.20,Weather View 32 v70,2013-07-31 16:58:00,
2013-07-31 13:05:00,69.0,69.0,30.05,SW,225,4.0,10.0,100,0.00,,,0.20,Weather View 32 v70,2013-07-31 17:05:00,
2013-07-31 13:10:00,69.0,69.0,30.04,SW,225,3.0,10.0,100,0.00,,,0.20,Weather View 32 v70,2013-07-31 17:10:00,
2013-07-31 13:20:00,70.0,70.0,30.04,WSW,247,6.0,9.0,100,0.00,,,0.20,Weather View 32 v70,2013-07-31 17:20:00,
2013-07-31 13:30:00,71.0,71.0,30.03,SW,225,4.0,8.0,100,0.00,,,0.20,Weather View 32 v70,2013-07-31 17:30:00,
2013-07-31 13:40:00,71.0,71.0,30.03,WSW,247,0.0,9.0,100,0.00,,,0.20,Weather View 32 v70,2013-07-31 17:40:00,
2013-07-31 13:50:00,71.0,71.0,30.03,SW,225,0.0,9.0,100,0.00,,,0.20,Weather View 32 v70,2013-07-31 17:50:00,
2013-07-31 13:59:00,72.0,72.0,30.03,SW,225,3.0,9.0,100,0.00,,,0.20,Weather View 32 v70,2013-07-31 17:59:00,
2013-07-31 14:05:00,72.0,72.0,30.03,WSW,247,4.0,9.0,100,0.00,,,0.20,Weather View 32 v70,2013-07-31 18:05:00,
2013-07-31 14:10:00,72.0,72.0,30.02,WSW,247,0.0,9.0,100,0.00,,,0.20,Weather View 32 v70,2013-07-31 18:10:00,
2013-07-31 14:20:00,72.0,72.0,30.02,SW,225,0.0,9.0,100,0.00,,,0.20,Weather View 32 v70,2013-07-31 18:20:00,
2013-07-31 14:30:00,73.0,73.0,30.01,West,270,0.0,9.0,100,0.00,,,0.20,Weather View 32 v70,2013-07-31 18:30:00,
2013-07-31 14:40:00,73.0,73.0,30.01,SW,225,7.0,8.0,100,0.00,,,0.20,Weather View 32 v70,2013-07-31 18:40:00,
2013-07-31 14:45:00,73.0,73.0,30.01,SW,225,1.0,8.0,100,0.00,,,0.20,Weather View 32 v70,2013-07-31 18:45:00,
2013-07-31 14:55:00,71.0,71.0,30.01,SW,225,1.0,10.0,100,0.00,,,0.20,Weather View 32 v70,2013-07-31 18:55:00,
2013-07-31 15:00:00,71.0,71.0,30.01,SW,225,3.0,10.0,100,0.00,,,0.20,Weather View 32 v70,2013-07-31 19:00:00,
2013-07-31 15:05:00,70.0,70.0,30.01,SW,225,0.0,10.0,100,0.00,,,0.20,Weather View 32 v70,2013-07-31 19:05:00,
2013-07-31 15:10:00,71.0,71.0,30.01,SW,225,4.0,10.0,100,0.00,,,0.20,Weather View 32 v70,2013-07-31 19:10:00,
2013-07-31 15:20:00,71.0,71.0,30.01,SW,225,0.0,10.0,100,0.00,,,0.20,Weather View 32 v70,2013-07-31 19:20:00,
2013-07-31 15:30:00,71.0,71.0,30.01,SW,225,0.0,10.0,100,0.00,,,0.20,Weather View 32 v70,2013-07-31 19:30:00,
2013-07-31 15:40:00,72.0,72.0,30.00,SW,225,4.0,10.0,100,0.00,,,0.20,Weather View 32 v70,2013-07-31 19:40:00,
2013-07-31 15:50:00,73.0,73.0,29.99,North,360,5.0,10.0,100,0.00,,,0.20,Weather View 32 v70,2013-07-31 19:50:00,
2013-07-31 15:55:00,74.0,74.0,29.99,SW,225,3.0,8.0,100,0.00,,,0.20,Weather View 32 v70,2013-07-31 19:55:00,
2013-07-31 16:00:00,74.0,74.0,29.99,West,270,3.0,8.0,100,0.00,,,0.20,Weather View 32 v70,2013-07-31 20:00:00,
2013-07-31 16:10:00,74.0,74.0,29.98,WSW,247,0.0,8.0,100,0.00,,,0.20,Weather View 32 v70,2013-07-31 20:10:00,
2013-07-31 16:20:00,75.0,75.0,29.98,WSW,247,0.0,8.0,100,0.00,,,0.20,Weather View 32 v70,2013-07-31 20:20:00,
2013-07-31 16:25:00,74.0,74.0,29.98,SW,225,0.0,8.0,100,0.00,,,0.20,Weather View 32 v70,2013-07-31 20:25:00,
2013-07-31 16:35:00,74.0,74.0,29.97,WSW,247,3.0,8.0,100,0.00,,,0.20,Weather View 32 v70,2013-07-31 20:35:00,
2013-07-31 16:40:00,74.0,74.0,29.98,SW,225,7.0,8.0,100,0.00,,,0.20,Weather View 32 v70,2013-07-31 20:40:00,
2013-07-31 16:50:00,72.0,72.0,29.98,SW,225,4.0,8.0,100,0.00,,,0.20,Weather View 32 v70,2013-07-31 20:50:00,
2013-07-31 17:00:00,72.0,72.0,29.98,SW,225,0.0,8.0,100,0.00,,,0.20,Weather View 32 v70,2013-07-31 21:00:00,
2013-07-31 17:10:00,72.0,72.0,29.98,SW,225,0.0,8.0,100,0.00,,,0.20,Weather View 32 v70,2013-07-31 21:10:00,
2013-07-31 17:15:00,72.0,72.0,29.98,SW,225,0.0,8.0,100,0.00,,,0.20,Weather View 32 v70,2013-07-31 21:15:00,
2013-07-31 17:20:00,72.0,72.0,29.98,SW,225,4.0,8.0,100,0.00,,,0.20,Weather View 32 v70,2013-07-31 21:20:00,
2013-07-31 17:30:00,72.0,72.0,29.98,SW,225,2.0,8.0,100,0.00,,,0.20,Weather View 32 v70,2013-07-31 21:30:00,
2013-07-31 17:35:00,72.0,72.0,29.98,SW,225,0.0,8.0,100,0.00,,,0.20,Weather View 32 v70,2013-07-31 21:35:00,
2013-07-31 17:45:00,72.0,72.0,29.98,SW,225,0.0,7.0,100,0.00,,,0.20,Weather View 32 v70,2013-07-31 21:45:00,
2013-07-31 17:50:00,72.0,72.0,29.97,SW,225,0.0,6.0,100,0.00,,,0.20,Weather View 32 v70,2013-07-31 21:50:00,
2013-07-31 18:00:00,72.0,72.0,29.97,SW,225,2.0,5.0,100,0.00,,,0.20,Weather View 32 v70,2013-07-31 22:00:00,
2013-07-31 18:10:00,71.0,71.0,29.96,SW,225,0.0,5.0,100,0.00,,,0.20,Weather View 32 v70,2013-07-31 22:10:00,
2013-07-31 18:20:00,72.0,72.0,29.96,SW,225,0.0,5.0,100,0.00,,,0.20,Weather View 32 v70,2013-07-31 22:20:00,
2013-07-31 18:30:00,72.0,72.0,29.96,SW,225,0.0,4.0,100,0.00,,,0.20,Weather View 32 v70,2013-07-31 22:30:00,
2013-07-31 18:35:00,72.0,72.0,29.96,SW,225,0.0,4.0,100,0.00,,,0.20,Weather View 32 v70,2013-07-31 22:35:00,
2013-07-31 18:45:00,72.0,72.0,29.96,SW,225,0.0,4.0,100,0.00,,,0.20,Weather View 32 v70,2013-07-31 22:45:00,
2013-07-31 18:55:00,72.0,72.0,29.96,SW,225,0.0,4.0,100,0.00,,,0.20,Weather View 32 v70,2013-07-31 22:55:00,
2013-07-31 19:00:00,72.0,72.0,29.96,SW,225,0.0,4.0,100,0.00,,,0.20,Weather View 32 v70,2013-07-31 23:00:00,
2013-07-31 19:10:00,72.0,72.0,29.95,SW,225,0.0,0.0,100,0.00,,,0.20,Weather View 32 v70,2013-07-31 23:10:00,
2013-07-31 19:20:00,71.0,71.0,29.96,SW,225,0.0,0.0,100,0.00,,,0.20,Weather View 32 v70,2013-07-31 23:20:00,
2013-07-31 19:30:00,71.0,71.0,29.96,WSW,247,0.0,0.0,100,0.00,,,0.20,Weather View 32 v70,2013-07-31 23:30:00,
2013-07-31 19:40:00,71.0,71.0,29.96,WSW,247,0.0,0.0,100,0.00,,,0.20,Weather View 32 v70,2013-07-31 23:40:00,
2013-07-31 19:45:00,71.0,71.0,29.96,WSW,247,0.0,0.0,100,0.00,,,0.20,Weather View 32 v70,2013-07-31 23:45:00,
2013-07-31 19:55:00,70.0,70.0,29.96,WSW,247,0.0,0.0,100,0.00,,,0.20,Weather View 32 v70,2013-07-31 23:55:00,
2013-07-31 20:02:00,71.0,71.0,29.97,WSW,247,0.0,0.0,100,0.00,,,0.20,Weather View 32 v70,2013-08-01 00:02:00,
2013-07-31 20:10:00,70.0,70.0,29.97,WSW,247,0.0,0.0,100,0.00,,,0.20,Weather View 32 v70,2013-08-01 00:10:00,
2013-07-31 20:20:00,70.0,70.0,29.97,SW,225,3.0,5.0,100,0.00,,,0.20,Weather View 32 v70,2013-08-01 00:20:00,
2013-07-31 20:30:00,70.0,70.0,29.97,SW,225,0.0,5.0,100,0.00,,,0.20,Weather View 32 v70,2013-08-01 00:30:00,
2013-07-31 20:35:00,70.0,70.0,29.97,SW,225,0.0,5.0,100,0.00,,,0.20,Weather View 32 v70,2013-08-01 00:35:00,
2013-07-31 20:45:00,69.0,69.0,29.97,SW,225,0.0,5.0,100,0.00,,,0.20,Weather View 32 v70,2013-08-01 00:45:00,
2013-07-31 20:50:00,69.0,69.0,29.98,SW,225,0.0,5.0,100,0.00,,,0.20,Weather View 32 v70,2013-08-01 00:50:00,
2013-07-31 21:00:00,69.0,69.0,29.98,West,270,0.0,5.0,100,0.00,,,0.20,Weather View 32 v70,2013-08-01 01:00:00,
2013-07-31 21:05:00,69.0,69.0,29.98,West,270,0.0,5.0,100,0.00,,,0.20,Weather View 32 v70,2013-08-01 01:05:00,
2013-07-31 21:10:00,69.0,69.0,29.98,North,360,0.0,5.0,100,0.00,,,0.20,Weather View 32 v70,2013-08-01 01:10:00,
2013-07-31 21:20:00,69.0,69.0,29.98,SW,225,0.0,3.0,100,0.00,,,0.20,Weather View 32 v70,2013-08-01 01:20:00,
2013-07-31 21:30:00,69.0,69.0,29.98,SW,225,0.0,0.0,100,0.00,,,0.20,Weather View 32 v70,2013-08-01 01:30:00,
2013-07-31 21:40:00,69.0,69.0,29.98,SW,225,0.0,0.0,100,0.00,,,0.20,Weather View 32 v70,2013-08-01 01:40:00,
2013-07-31 21:45:00,69.0,69.0,29.98,SW,225,0.0,0.0,100,0.00,,,0.20,Weather View 32 v70,2013-08-01 01:45:00,
2013-07-31 21:55:00,69.0,69.0,29.98,SW,225,0.0,0.0,100,0.00,,,0.20,Weather View 32 v70,2013-08-01 01:55:00,
2013-07-31 22:03:00,69.0,69.0,29.98,SW,225,0.0,0.0,100,0.00,,,0.20,Weather View 32 v70,2013-08-01 02:03:00,
2013-07-31 22:10:00,68.0,68.0,29.98,SW,225,0.0,0.0,100,0.00,,,0.20,Weather View 32 v70,2013-08-01 02:10:00,
2013-07-31 22:20:00,68.0,68.0,29.99,SW,225,0.0,0.0,100,0.00,,,0.20,Weather View 32 v70,2013-08-01 02:20:00,
2013-07-31 22:25:00,68.0,68.0,29.99,SW,225,0.0,0.0,100,0.00,,,0.20,Weather View 32 v70,2013-08-01 02:25:00,
2013-07-31 22:35:00,68.0,68.0,29.99,SW,225,0.0,0.0,100,0.00,,,0.20,Weather View 32 v70,2013-08-01 02:35:00,
2013-07-31 22:45:00,68.0,68.0,29.99,SW,225,0.0,0.0,100,0.00,,,0.20,Weather View 32 v70,2013-08-01 02:45:00,
2013-07-31 22:50:00,68.0,68.0,29.99,SW,225,0.0,0.0,100,0.00,,,0.20,Weather View 32 v70,2013-08-01 02:50:00,
2013-07-31 23:00:00,68.0,68.0,29.99,SW,225,0.0,0.0,100,0.00,,,0.20,Weather View 32 v70,2013-08-01 03:00:00,
2013-07-31 23:05:00,68.0,68.0,29.99,SW,225,0.0,0.0,100,0.00,,,0.20,Weather View 32 v70,2013-08-01 03:05:00,
2013-07-31 23:10:00,68.0,68.0,29.98,SW,225,0.0,0.0,100,0.00,,,0.20,Weather View 32 v70,2013-08-01 03:10:00,
2013-07-31 23:15:00,68.0,68.0,29.98,SW,225,0.0,0.0,100,0.00,,,0.20,Weather View 32 v70,2013-08-01 03:15:00,
2013-07-31 23:20:00,68.0,68.0,29.98,SW,225,0.0,0.0,100,0.00,,,0.20,Weather View 32 v70,2013-08-01 03:20:00,
2013-07-31 23:30:00,68.0,68.0,29.98,SW,225,0.0,0.0,100,0.00,,,0.20,Weather View 32 v70,2013-08-01 03:30:00,
2013-07-31 23:35:00,68.0,68.0,29.98,SW,225,0.0,0.0,100,0.00,,,0.20,Weather View 32 v70,2013-08-01 03:35:00,
2013-07-31 23:40:00,68.0,68.0,29.98,SW,225,0.0,0.0,100,0.00,,,0.20,Weather View 32 v70,2013-08-01 03:40:00,
2013-07-31 23:45:00,68.0,68.0,29.98,SW,225,0.0,0.0,100,0.00,,,0.20,Weather View 32 v70,2013-08-01 03:45:00,
2013-07-31 23:55:00,68.0,68.0,29.98,SW,225,0.0,0.0,100,0.00,,,0.20,Weather View 32 v70,2013-08-01 03:55:00,